�N����,����,�~����,�C��,���x,�C��,����,���ϕ���,�ő�u�ԕ���,�ő厞����,���˗�,�I�_���x,�n�����x,�ő啗���N��,DTYPE
"16/12/19","00:10",0.0,3.0,96.9,1022.5,313.0,1.5,2.9,324.0,0.00,2.6,7.6,"00:01:20",1
"16/12/19","00:20",0.0,3.0,97.7,1022.3,293.9,1.8,3.5,313.6,0.00,2.7,7.6,"00:18:42",1
"16/12/19","00:30",0.0,3.3,97.4,1022.3,135.0,1.0,2.1,309.6,0.00,3.0,7.5,"00:20:08",1
"16/12/19","00:40",0.0,3.3,97.2,1022.5,312.9,1.7,2.2,304.5,0.00,2.9,7.2,"00:35:04",1
"16/12/19","00:50",0.0,3.3,97.1,1022.0,332.1,1.5,2.5,337.1,0.00,2.9,7.5,"00:42:08",1
"16/12/19","01:00",0.0,3.1,96.9,1022.0,284.7,1.3,2.1,321.6,0.00,2.7,7.4,"00:55:04",1
"16/12/19","01:10",0.0,2.9,97.2,1022.0,259.9,0.7,1.4,296.9,0.00,2.5,7.5,"01:00:24",1
"16/12/19","01:20",0.0,3.0,97.2,1022.3,319.4,1.0,2.7,325.0,0.00,2.6,7.3,"01:17:48",1
"16/12/19","01:30",0.0,3.0,97.4,1022.3,336.3,1.8,3.2,320.9,0.00,2.7,7.2,"01:23:28",1
"16/12/19","01:40",0.0,2.9,97.2,1022.3,303.1,1.7,2.2,318.1,0.00,2.5,7.2,"01:32:00",1
"16/12/19","01:50",0.0,2.7,97.6,1022.0,287.1,1.6,2.7,320.1,0.00,2.4,7.5,"01:48:50",1
"16/12/19","02:00",0.0,2.7,97.9,1022.0,319.7,2.2,2.7,321.2,0.00,2.4,7.3,"01:53:46",1
"16/12/19","02:10",0.0,2.5,97.9,1022.0,293.3,1.8,2.6,316.0,0.00,2.2,7.2,"02:08:08",1
"16/12/19","02:20",0.0,2.5,98.6,1021.8,289.5,1.7,2.2,308.2,0.00,2.3,7.2,"02:10:16",1
"16/12/19","02:30",0.0,2.9,97.5,1022.0,296.2,2.0,2.6,315.7,0.00,2.6,7.1,"02:29:20",1
"16/12/19","02:40",0.0,2.7,98.3,1021.8,287.3,1.8,2.1,306.9,0.00,2.5,7.2,"02:30:08",1
"16/12/19","02:50",0.0,3.0,97.5,1021.5,297.1,2.0,2.6,326.9,0.00,2.7,7.1,"02:49:44",1
"16/12/19","03:00",0.0,2.8,98.3,1021.3,304.3,1.8,2.6,307.6,0.00,2.6,7.2,"02:51:12",1
"16/12/19","03:10",0.0,2.9,97.2,1021.3,303.5,2.0,2.5,315.3,0.00,2.5,7.1,"03:01:52",1
"16/12/19","03:20",0.0,2.5,98.2,1021.5,295.3,2.0,2.6,310.5,0.00,2.3,6.9,"03:13:52",1
"16/12/19","03:30",0.0,2.6,97.1,1021.3,301.5,2.1,2.6,312.2,0.00,2.2,7.0,"03:25:04",1
"16/12/19","03:40",0.0,2.1,97.9,1021.3,295.8,2.0,2.7,314.8,0.00,1.8,6.9,"03:39:52",1
"16/12/19","03:50",0.0,1.9,98.3,1021.1,301.4,2.2,2.6,308.5,0.00,1.7,6.9,"03:44:56",1
"16/12/19","04:00",0.0,1.9,97.5,1021.1,307.3,2.6,3.2,318.1,0.00,1.6,6.7,"03:51:04",1
"16/12/19","04:10",0.0,1.5,98.6,1021.3,287.9,1.6,2.5,305.5,0.00,1.3,6.9,"04:05:28",1
"16/12/19","04:20",0.0,1.8,98.1,1020.8,304.3,2.3,3.1,308.7,0.00,1.6,6.6,"04:14:56",1
"16/12/19","04:30",0.0,1.8,97.7,1021.3,291.2,1.6,2.1,303.5,0.00,1.5,6.7,"04:20:56",1
"16/12/19","04:40",0.0,1.5,99.1,1020.8,285.7,1.6,1.8,282.3,0.00,1.4,6.8,"04:32:48",1
"16/12/19","04:50",0.0,1.8,98.3,1020.6,302.1,2.2,3.5,315.9,0.00,1.6,6.6,"04:46:08",1
"16/12/19","05:00",0.0,1.6,97.8,1021.1,290.1,1.7,2.7,310.8,0.00,1.3,6.6,"04:53:44",1
"16/12/19","05:10",0.0,1.2,99.2,1021.1,295.2,1.7,2.4,303.5,0.00,1.1,6.7,"05:07:04",1
"16/12/19","05:20",0.0,1.5,98.5,1020.8,312.0,2.7,3.6,321.0,0.00,1.3,6.6,"05:11:12",1
"16/12/19","05:30",0.0,1.5,98.3,1020.8,290.8,2.2,3.4,318.2,0.00,1.3,6.7,"05:20:16",1
"16/12/19","05:40",0.0,1.5,98.4,1020.8,303.0,2.2,2.7,307.5,0.00,1.3,6.6,"05:32:16",1
"16/12/19","05:50",0.0,1.4,98.2,1021.1,289.7,2.0,2.8,306.7,0.00,1.2,6.4,"05:40:24",1
"16/12/19","06:00",0.0,1.2,98.5,1020.8,299.0,2.0,2.6,309.0,0.00,1.0,6.6,"05:57:36",1
"16/12/19","06:10",0.0,1.5,98.6,1021.1,293.9,2.0,2.4,308.3,0.00,1.3,6.2,"06:03:36",1
"16/12/19","06:20",0.0,1.7,98.8,1021.1,295.4,1.6,2.0,315.8,0.00,1.6,6.5,"06:17:28",1
"16/12/19","06:30",0.0,1.5,98.3,1021.3,302.7,2.3,2.9,320.1,0.00,1.3,6.3,"06:26:08",1
"16/12/19","06:40",0.0,1.2,98.6,1021.5,295.0,1.8,2.4,301.8,0.00,1.0,6.3,"06:30:48",1
"16/12/19","06:50",0.0,1.2,98.7,1022.0,297.8,1.6,2.8,311.3,0.00,1.1,6.3,"06:49:28",1
"16/12/19","07:00",0.0,1.2,98.7,1021.8,308.5,2.5,3.4,317.1,0.00,1.1,6.5,"06:52:16",1
"16/12/19","07:10",0.0,1.1,98.6,1022.0,290.1,0.8,1.8,295.0,0.00,0.9,6.3,"07:00:02",1
"16/12/19","07:20",0.0,1.0,98.8,1022.0,298.1,2.2,3.2,314.0,0.00,0.9,6.4,"07:19:12",1
"16/12/19","07:30",0.0,1.0,99.1,1022.3,316.4,3.1,3.9,322.3,0.00,0.9,6.3,"07:28:24",1
"16/12/19","07:40",0.0,1.4,99.1,1022.0,308.5,2.7,3.7,321.4,0.00,1.3,6.2,"07:30:16",1
"16/12/19","07:50",0.0,1.7,99.6,1021.8,276.3,1.8,2.8,274.7,0.00,1.7,6.1,"07:49:44",1
"16/12/19","08:00",0.0,2.5,99.4,1022.3,291.5,1.7,2.6,293.1,0.01,2.5,6.1,"07:50:16",1
"16/12/19","08:10",0.0,2.7,99.2,1022.0,297.9,1.5,2.2,310.1,0.01,2.6,6.2,"08:04:32",1
"16/12/19","08:20",0.0,2.6,98.7,1022.3,302.2,1.5,2.2,308.9,0.01,2.5,6.2,"08:13:36",1
"16/12/19","08:30",0.0,2.6,99.0,1022.3,312.9,2.2,2.8,315.1,0.03,2.5,6.2,"08:26:32",1
"16/12/19","08:40",0.0,3.3,99.1,1022.7,293.0,1.2,1.7,311.3,0.05,3.2,6.1,"08:30:08",1
"16/12/19","08:50",0.0,4.0,98.2,1022.7,272.1,1.1,1.6,264.5,0.07,3.8,6.4,"08:40:24",1
"16/12/19","09:00",0.0,4.9,96.4,1023.0,261.4,0.7,1.1,265.9,0.09,4.4,6.4,"08:56:08",1
"16/12/19","09:10",0.0,5.3,93.9,1023.4,269.8,1.1,1.6,265.2,0.11,4.4,6.5,"09:09:26",1
"16/12/19","09:20",0.0,5.9,92.2,1023.7,273.0,1.3,1.8,254.1,0.14,4.8,6.3,"09:17:24",1
"16/12/19","09:30",0.0,6.5,88.9,1023.7,281.6,0.8,1.1,283.7,0.17,4.8,6.4,"09:20:16",1
"16/12/19","09:40",0.0,7.3,86.9,1023.9,272.9,0.7,1.2,253.2,0.20,5.3,7.0,"09:36:56",1
"16/12/19","09:50",0.0,7.9,83.8,1023.9,241.6,0.5,1.0,247.1,0.23,5.4,7.0,"09:40:08",1
"16/12/19","10:00",0.0,7.8,83.7,1023.7,7.2,0.5,1.4,138.4,0.26,5.3,7.3,"09:59:52",1
"16/12/19","10:10",0.0,8.6,81.9,1023.9,238.1,0.6,1.7,243.9,0.28,5.7,7.5,"10:05:36",1
"16/12/19","10:20",0.0,8.9,80.9,1024.1,226.1,1.0,1.8,209.0,0.30,5.8,7.7,"10:10:08",1
"16/12/19","10:30",0.0,8.9,80.5,1023.9,167.2,0.7,1.9,126.8,0.33,5.8,7.7,"10:27:36",1
"16/12/19","10:40",0.0,9.2,78.8,1024.4,138.8,0.8,2.1,128.1,0.34,5.8,8.1,"10:35:20",1
"16/12/19","10:50",0.0,9.7,77.5,1024.1,239.4,0.8,2.0,127.9,0.35,6.0,8.1,"10:45:04",1
"16/12/19","11:00",0.0,10.1,75.7,1024.1,234.1,1.1,2.2,223.2,0.37,6.0,8.2,"10:58:08",1
"16/12/19","11:10",0.0,10.3,75.8,1023.7,228.6,1.2,2.0,234.3,0.37,6.3,8.6,"11:02:24",1
"16/12/19","11:20",0.0,10.8,74.7,1023.7,219.6,1.1,2.2,140.0,0.38,6.5,8.8,"11:10:32",1
"16/12/19","11:30",0.0,10.8,71.7,1023.0,228.1,1.1,2.7,236.1,0.39,5.9,9.0,"11:29:52",1
"16/12/19","11:40",0.0,10.9,72.6,1022.7,150.5,1.0,2.0,209.1,0.40,6.2,9.1,"11:39:44",1
"16/12/19","11:50",0.0,11.5,68.8,1022.5,197.8,1.0,1.9,198.9,0.40,6.0,9.0,"11:44:24",1
"16/12/19","12:00",0.0,11.7,70.0,1022.0,197.3,1.0,2.1,175.5,0.40,6.5,9.4,"11:54:56",1
"16/12/19","12:10",0.0,11.9,67.5,1022.3,196.0,1.0,2.0,212.5,0.40,6.1,9.7,"12:00:08",1
"16/12/19","12:20",0.0,12.1,67.6,1021.8,173.2,1.1,2.5,118.3,0.40,6.3,9.8,"12:18:32",1
"16/12/19","12:30",0.0,12.6,67.0,1021.3,111.6,1.0,2.1,108.4,0.40,6.7,10.0,"12:26:00",1
"16/12/19","12:40",0.0,12.7,65.3,1021.3,181.4,1.5,3.4,105.9,0.39,6.4,10.0,"12:30:08",1
"16/12/19","12:50",0.0,12.8,64.5,1021.1,192.5,1.3,2.6,189.4,0.38,6.3,10.2,"12:44:08",1
"16/12/19","13:00",0.0,13.1,64.3,1020.8,197.2,1.1,2.6,183.5,0.37,6.6,10.3,"12:52:32",1
"16/12/19","13:10",0.0,12.9,65.1,1020.4,155.4,1.5,2.8,236.2,0.36,6.5,10.4,"13:07:36",1
"16/12/19","13:20",0.0,13.2,65.6,1020.4,212.9,1.0,2.1,207.9,0.35,6.9,10.6,"13:14:24",1
"16/12/19","13:30",0.0,13.3,65.3,1020.1,195.1,0.7,1.7,228.6,0.33,7.0,10.5,"13:20:02",1
"16/12/19","13:40",0.0,13.2,64.0,1019.9,207.9,1.1,2.9,214.8,0.33,6.6,10.7,"13:30:48",1
"16/12/19","13:50",0.0,13.2,64.3,1019.9,106.6,1.1,2.0,98.6,0.31,6.7,10.9,"13:45:44",1
"16/12/19","14:00",0.0,13.3,63.3,1019.7,57.5,1.0,2.1,99.2,0.29,6.5,11.0,"13:56:16",1
"16/12/19","14:10",0.0,13.6,61.5,1019.9,348.7,0.7,1.9,154.0,0.28,6.4,11.1,"14:02:08",1
"16/12/19","14:20",0.0,13.8,61.7,1019.4,141.3,0.8,1.8,116.4,0.26,6.6,11.1,"14:14:16",1
"16/12/19","14:30",0.0,13.9,61.3,1019.9,12.0,0.6,1.7,99.2,0.24,6.6,11.3,"14:21:28",1
"16/12/19","14:40",0.0,14.2,60.0,1019.7,196.5,0.7,1.9,202.1,0.21,6.6,11.4,"14:35:04",1
"16/12/19","14:50",0.0,14.6,59.0,1019.7,274.2,0.8,1.3,290.2,0.18,6.7,11.3,"14:44:40",1
"16/12/19","15:00",0.0,14.2,61.2,1019.7,179.9,0.6,1.7,141.5,0.16,6.9,11.5,"14:57:20",1
"16/12/19","15:10",0.0,14.2,60.8,1019.9,241.4,0.7,1.7,216.6,0.14,6.8,11.4,"15:05:04",1
"16/12/19","15:20",0.0,14.1,61.3,1019.9,272.8,0.6,1.8,98.5,0.11,6.8,11.5,"15:15:20",1
"16/12/19","15:30",0.0,14.1,61.3,1019.9,259.1,0.8,1.8,232.9,0.10,6.8,11.4,"15:23:12",1
"16/12/19","15:40",0.0,14.3,61.4,1019.9,257.6,1.0,2.2,240.4,0.09,7.0,11.5,"15:37:20",1
"16/12/19","15:50",0.0,13.9,62.3,1019.9,227.8,0.7,1.8,235.9,0.04,6.9,11.4,"15:42:32",1
"16/12/19","16:00",0.0,13.6,62.8,1019.9,274.6,0.6,1.1,300.1,0.02,6.7,11.2,"15:59:04",1
"16/12/19","16:10",0.0,13.3,64.8,1020.1,284.3,1.0,1.4,249.8,0.01,6.9,11.3,"16:06:06",1
"16/12/19","16:20",0.0,12.7,68.6,1019.9,280.3,1.1,1.6,261.3,0.00,7.1,11.2,"16:16:20",1
"16/12/19","16:30",0.0,12.0,72.3,1019.9,313.7,1.3,1.9,324.9,0.00,7.2,11.1,"16:27:20",1
"16/12/19","16:40",0.0,11.3,75.3,1019.9,299.6,1.1,1.7,320.1,0.00,7.1,11.1,"16:31:04",1
"16/12/19","16:50",0.0,10.7,77.6,1019.7,302.7,1.2,1.7,313.6,0.00,7.0,10.9,"16:40:02",1
"16/12/19","17:00",0.0,10.1,80.3,1020.1,287.8,1.5,2.0,292.9,0.00,6.9,10.7,"16:59:50",1
"16/12/19","17:10",0.0,10.0,81.5,1019.9,276.8,1.7,2.4,260.8,0.00,7.0,10.7,"17:02:18",1
"16/12/19","17:20",0.0,9.7,82.1,1019.7,282.2,1.5,1.9,282.9,0.00,6.8,10.7,"17:11:52",1
"16/12/19","17:30",0.0,9.3,82.8,1019.7,290.2,1.3,1.8,269.2,0.00,6.6,10.6,"17:21:04",1
"16/12/19","17:40",0.0,9.0,84.3,1019.7,289.1,1.5,2.1,301.1,0.00,6.5,10.6,"17:38:46",1
"16/12/19","17:50",0.0,8.9,85.5,1020.1,309.8,2.1,3.3,315.9,0.00,6.6,10.3,"17:46:44",1
"16/12/19","18:00",0.0,8.8,85.4,1019.9,291.6,1.7,2.0,286.6,0.00,6.5,10.3,"17:56:00",1
"16/12/19","18:10",0.0,8.5,86.2,1020.1,296.7,1.6,2.1,306.6,0.00,6.4,10.0,"18:09:48",1
"16/12/19","18:20",0.0,8.3,86.7,1020.1,311.7,2.0,2.5,333.4,0.00,6.3,10.0,"18:17:28",1
"16/12/19","18:30",0.0,7.7,87.6,1020.1,307.2,1.0,2.5,317.7,0.00,5.8,9.9,"18:21:04",1
"16/12/19","18:40",0.0,7.1,89.3,1019.9,314.7,2.3,2.7,317.5,0.00,5.5,9.7,"18:33:20",1
"16/12/19","18:50",0.0,6.8,90.7,1019.4,308.4,2.1,3.1,323.1,0.00,5.4,9.7,"18:41:44",1
"16/12/19","19:00",0.0,6.9,91.9,1020.1,290.7,2.0,2.2,309.6,0.00,5.7,9.5,"18:50:32",1
"16/12/19","19:10",0.0,7.2,92.0,1020.1,292.8,2.1,3.5,325.6,0.00,6.0,9.3,"19:01:04",1
"16/12/19","19:20",0.0,7.2,91.8,1019.7,298.7,2.0,2.5,327.9,0.00,6.0,9.5,"19:16:24",1
"16/12/19","19:30",0.0,7.0,91.7,1019.7,304.9,2.0,2.5,324.2,0.00,5.8,9.2,"19:22:08",1
"16/12/19","19:40",0.0,6.9,91.6,1020.1,310.0,2.3,3.9,320.5,0.00,5.7,9.2,"19:39:28",1
"16/12/19","19:50",0.0,6.2,91.8,1020.1,293.4,1.7,3.4,315.7,0.00,5.0,9.2,"19:40:24",1
"16/12/19","20:00",0.0,6.0,93.4,1019.9,291.8,1.6,2.2,312.5,0.00,5.1,9.1,"19:55:52",1
"16/12/19","20:10",0.0,5.7,93.8,1019.7,308.6,2.5,3.3,318.5,0.00,4.8,8.9,"20:02:24",1
"16/12/19","20:20",0.0,5.5,94.2,1019.9,302.5,1.3,2.6,319.0,0.00,4.7,8.9,"20:10:02",1
"16/12/19","20:30",0.0,5.2,94.8,1019.9,308.3,2.0,3.1,324.7,0.00,4.5,8.9,"20:20:16",1
"16/12/19","20:40",0.0,5.2,95.6,1019.4,302.9,1.5,2.1,321.8,0.00,4.6,9.0,"20:36:32",1
"16/12/19","20:50",0.0,5.1,95.7,1019.7,302.9,1.3,2.1,307.3,0.00,4.5,8.8,"20:42:32",1
"16/12/19","21:00",0.0,4.9,96.3,1019.7,298.7,1.5,2.0,309.4,0.00,4.4,8.6,"20:56:40",1
"16/12/19","21:10",0.0,4.9,97.0,1019.9,304.3,1.8,2.5,313.7,0.00,4.5,8.7,"21:07:28",1
"16/12/19","21:20",0.0,4.9,97.0,1019.9,299.7,1.3,2.0,314.6,0.00,4.5,8.4,"21:11:28",1
"16/12/19","21:30",0.0,4.9,97.4,1019.9,306.1,1.7,2.2,316.6,0.00,4.6,8.6,"21:24:00",1
"16/12/19","21:40",0.0,4.6,97.3,1019.7,267.5,0.8,2.4,309.0,0.00,4.2,8.4,"21:30:08",1
"16/12/19","21:50",0.0,4.6,97.8,1019.9,285.0,0.7,1.8,307.6,0.00,4.3,8.3,"21:42:40",1
"16/12/19","22:00",0.0,4.3,97.5,1019.9,315.5,2.1,2.6,320.8,0.00,4.0,8.3,"21:53:52",1
"16/12/19","22:10",0.0,4.1,98.3,1020.1,323.1,2.2,2.8,326.9,0.00,3.9,8.2,"22:00:02",1
"16/12/19","22:20",0.0,4.7,97.7,1019.9,320.0,2.2,3.3,323.3,0.00,4.4,8.1,"22:10:32",1
"16/12/19","22:30",0.0,4.3,98.3,1020.4,278.1,1.3,2.0,307.4,0.00,4.1,8.1,"22:29:52",1
"16/12/19","22:40",0.0,4.6,97.5,1019.9,297.3,1.5,2.2,312.7,0.00,4.3,8.2,"22:30:48",1
"16/12/19","22:50",0.0,4.4,98.7,1019.9,301.9,2.1,2.4,318.8,0.00,4.3,8.0,"22:44:00",1
"16/12/19","23:00",0.0,5.0,98.1,1019.7,298.9,2.0,2.2,316.6,0.00,4.8,8.0,"22:54:48",1
"16/12/19","23:10",0.0,5.0,97.7,1019.4,293.8,1.8,2.4,313.3,0.00,4.7,8.2,"23:00:32",1
"16/12/19","23:20",0.0,4.9,98.5,1019.9,283.5,1.5,1.8,277.1,0.00,4.7,8.0,"23:14:00",1
"16/12/19","23:30",0.0,5.1,97.6,1019.7,296.8,1.7,2.6,320.2,0.00,4.8,8.0,"23:29:28",1
"16/12/19","23:40",0.0,4.3,98.1,1019.7,314.2,2.2,2.7,318.2,0.00,4.1,8.2,"23:34:32",1
"16/12/19","23:50",0.0,4.2,97.4,1019.4,308.0,1.6,2.4,322.9,0.00,3.9,8.0,"23:40:32",1
"16/12/19","24:00",0.0,3.9,98.7,1019.4,311.4,1.0,2.0,322.3,0.00,3.8,7.9,"23:54:32",1
